Regional Weather Roundup
Issued by NWS

Home | Current Version | Previous Version | Graphics & Text | Print | Product List | Glossary On
Versions: 1 2 3 4 5 6 7 8 9 10 11 12 13 14 15 16 17 18 19 20 21 22 23 24 25 26 27 28 29 30 31 32 33 34 35 36 37 38 39 40 41 42 43 44 45 46 47 48 49 50
769
ASUS44 KLIX 310907
RWRLA
LOUISIANA WEATHER ROUNDUP
NATIONAL WEATHER SERVICE NEW ORLEANS LA
400 AM CDT TUE MAR 31 2015

NOTE: "FAIR" INDICATES FEW OR NO CLOUDS BELOW 12,000 FEET WITH NO
      SIGNIFICANT WEATHER AND/OR OBSTRUCTIONS TO VISIBILITY.
      SKY/WX - SKY CONDITION AND SIGNIFICANT WEATHER.
      TMP - AIR TEMPERATURE.    DP   - DEWPOINT TEMPERATURE.
      RH  - RELATIVE HUMIDITY.  PRES - PRESSURE.
      HX  - HEAT INDEX.         WCI  - WIND CHILL INDEX.

*  THESE STATIONS ARE NOT NWS OR FAA STATIONS AND ARE NOT UNDER
   NWS QUALITY CONTROL.

LAZ040-048-061>063-065-066-069-311000-
SOUTHEAST LOUISIANA

CITY           SKY/WX    TMP DP  RH WIND       PRES   REMARKS
N.O. AUDUBON   NOT AVBL
N.O. INTL ARPT CLEAR     63  60  90 S6        30.10F
N.O. LAKEFRONT CLEAR     68  63  84 SW6       30.11F
SLIDELL        CLEAR     62  60  93 CALM      30.10F
BATON ROUGE    CLEAR     63  61  93 SW6       30.09F
BOOTHVILLE     CLEAR     68  66  93 S5        30.12F
BELLE CHASSE   FOG       59  57  93 CALM      30.10F VSB 3/4
BOGALUSA*        N/A     60  57  88 CALM      30.11F FOG
GALLIANO*      MOSUNNY   55  55  99 S3        30.11F FOG
NEW ROADS*     FAIR      61  60  96 S6        30.09F
GONZALES*      FAIR      60  60 100 CALM      30.10F FOG
HAMMOND*       CLEAR     61  59  94 CALM      30.11F
HOUMA*         HVY RAIN  58  58 100 CALM      30.11F VSB 1/4
PORT FOURCHON* CLOUDY    70  66  88 S6        30.14F

$$

LAZ041-044-053-054-311000-
SOUTHWEST LOUISIANA

CITY           SKY/WX    TMP DP  RH WIND       PRES   REMARKS
LAKE CHARLES   PTCLDY    59  59 100 CALM      30.07F FOG
LAFAYETTE      CLEAR     62  61  96 S5        30.09F
PATTERSON        N/A     59  57  94 CALM      30.12S VSB 3/4
SALT POINT       N/A     63  62  97 SE3       30.09F
NEW IBERIA     FOG       60  58  92 CALM      30.10F VSB 1/4
CHENAULT AIRPK FOG       58  58 100 S3        30.08F VSB 1/4

$$

LAZ027-028-311000-
CENTRAL LOUISIANA

CITY           SKY/WX    TMP DP  RH WIND       PRES   REMARKS
FORT POLK      CLOUDY    64  63  96 S8        30.06F
ALEXANDRIA INT PTCLDY    63  62  97 SW5       30.05F
ALEXANDRIA     CLOUDY    58  58 100 S3        30.07F

$$

LAZ001-002-311000-
NORTHWEST LOUISIANA

CITY           SKY/WX    TMP DP  RH WIND       PRES   REMARKS
SHREVEPORT     CLOUDY    65  61  87 S8        30.02F
BARKSDALE AFB  MOCLDY    65  61  86 S8        30.02F
DTN SHREVEPORT MOCLDY    65  60  84 SW8       30.02F

$$

LAZ014-016-311000-
NORTHEAST LOUISIANA

CITY           SKY/WX    TMP DP  RH WIND       PRES   REMARKS
MONROE         PTCLDY    62  59  90 S5        30.05F
TALLULAH       CLEAR     64  58  80 SW5       30.06S

$$




USA.gov is the U.S. government's official web portal to all federal, state and local government web resources and services.